Location: Unspecified
(41.9000°N, 12.4830°E)
Time: 17:58:31
(UTC+02:00)

ISS - Pass Details

Date: 22 September 2017
Orbit: 401 x 407 km, 51.6° (Epoch: 25 September)

Event Time Altitude Azimuth Distance (km) Brightness Sun altitude
Exits shadow 05:43:26 13° 198° (SSW) 1,272 -1.6 -14.5°
Drops below altitude 10° 05:44:13 10° 186° (S) 1,459 -1.2 -14.3°
Sets 05:46:48 0° 165° (SSE) 2,314 0.0 -13.9°
